Temp
62 62 62 62 63 63 63 63 63 63 63 63 63 63 63 63 63 67 75 86 84 81 82 91 90 90 90 84 83 79 63 63 67 70 74 76 75 82 84 79 82 83 78 78 79
62 62 62 62 62 62 62 62 62 62 62 63 63 63 63 63 65 72 84 83 81 81 89 89 86 87 77 80 77 69 62 68 77 79 76 81 81 81 78 77 78 78 80 81 79
61 61 62 62 62 62 62 62 62 62 62 62 63 63 63 63 69 83 83 82 80 81 92 92 88 84 77 78 76 70 68 76 81 81 82 81 80 82 77 72 76 74 76 78 77
61 61 61 61 61 62 62 62 62 62 62 62 63 63 63 64 69 88 83 81 81 88 90 88 82 75 72 73 77 73 77 77 78 81 82 79 81 79 80 79 83 81 81 78 77
61 61 61 61 61 61 61 61 61 61 61 62 63 63 62 70 79 85 83 82 87 89 88 84 80 76 74 76 74 71 76 81 81 83 82 85 82 81 81 82 83 83 80 79 78
60 60 60 60 60 60 61 61 61 61 61 62 63 63 66 71 90 87 86 85 89 88 88 87 83 82 78 75 74 80 79 81 81 81 84 80 79 83 79 83 81 81 79 78 77
60 60 60 60 60 60 60 60 60 61 61 63 63 68 70 80 91 87 87 85 88 90 87 90 88 82 78 76 82 79 73 80 81 81 80 82 74 76 81 81 79 79 81 81 79
60 59 59 59 59 59 59 59 60 61 62 63 65 65 72 88 86 88 86 85 87 90 88 89 88 81 79 83 82 77 72 66 81 81 83 81 68 77 81 78 76 79 80 81 81
59 59 59 59 58 58 58 58 60 63 64 66 61 63 74 86 85 87 87 87 88 88 88 96 85 76 77 70 66 68 63 68 76 83 82 79 72 79 80 78 76 78 79 81 81
59 59 58 58 58 57 57 58 62 63 65 71 77 68 78 84 88 88 86 90 87 85 85 82 77 71 67 65 58 63 66 71 72 80 81 75 75 78 79 78 77 78 79 80 81
59 58 58 58 58 57 53 61 68 67 65 74 73 76 84 90 92 88 89 88 85 80 72 76 66 62 69 70 76 72 68 70 77 82 77 76 76 76 80 78 77 77 78 79 81
58 58 58 58 57 56 52 64 67 69 66 77 77 79 85 87 81 86 91 81 79 72 73 70 63 72 78 80 75 71 67 68 77 83 77 74 75 77 79 79 80 79 79 80 81
58 58 57 57 56 53 58 69 75 68 63 73 77 77 79 83 80 82 87 82 76 72 71 66 72 82 81 77 77 69 66 71 72 78 77 73 70 70 78 81 82 83 83 83 83
58 57 57 54 59 55 64 69 70 70 59 67 71 79 82 84 78 90 88 85 76 74 74 71 79 79 76 75 73 64 77 78 74 69 62 70 57 65 70 72 78 81 82 83 84
58 57 56 55 53 61 71 65 68 73 49 74 72 84 79 80 78 82 87 82 76 76 72 72 75 74 73 75 78 73 77 76 73 65 59 62 59 64 67 71 74 79 83 84 86
57 56 56 52 48 59 62 65 72 58 51 70 77 73 73 72 77 80 82 84 83 74 71 73 78 77 76 81 80 82 73 67 61 59 55 59 59 61 65 72 75 80 81 85 86
56 55 54 58 64 60 63 68 55 49 71 66 68 68 66 69 70 74 74 68 68 59 60 71 75 75 81 74 75 71 61 54 54 52 53 54 56 63 74 75 76 81 79 83 87
54 54 53 56 54 60 65 62 45 63 64 72 70 65 67 67 69 71 69 66 67 65 58 59 60 69 79 75 69 64 63 55 48 47 55 57 56 67 71 75 76 79 80 82 84
53 50 50 55 56 58 63 49 54 60 71 70 68 64 60 68 70 68 65 65 70 70 64 55 60 74 79 77 77 66 61 64 55 47 50 55 62 72 74 74 74 77 79 78 80
46 50 56 59 61 62 58 49 56 66 71 68 60 64 61 64 66 63 65 72 73 74 68 64 59 70 77 77 74 71 71 59 54 48 46 52 52 56 64 65 68 70 74 76 77
49 57 65 60 62 60 50 49 59 70 72 67 61 61 65 65 64 61 63 73 74 72 72 64 63 71 68 65 68 65 62 58 56 53 50 47 53 63 65 66 65 69 70 71 72
45 56 65 63 57 44 50 55 62 64 67 68 66 67 65 67 64 64 66 71 78 72 67 66 58 57 67 73 71 67 65 58 54 54 49 50 54 70 67 67 68 68 72 72 73
44 47 64 67 52 50 53 61 64 64 65 65 65 71 67 66 60 64 67 76 78 73 65 67 56 52 59 64 67 63 63 57 55 51 51 52 55 69 68 67 70 70 70 71 74
47 52 58 59 52 53 52 58 60 70 68 68 68 67 64 62 59 63 65 74 76 74 71 68 55 57 54 60 61 60 65 64 59 52 51 54 56 61 65 66 67 68 70 70 71
48 50 51 51 55 52 53 57 59 60 67 66 64 66 66 59 59 59 61 64 71 70 67 65 57 53 59 64 63 64 67 65 60 57 56 56 59 61 63 64 65 67 70 72 71
49 48 50 49 52 53 51 55 61 63 63 64 64 71 64 60 65 59 62 57 60 66 61 60 57 53 55 63 65 65 68 67 65 62 61 60 58 61 64 65 64 63 65 67 68
46 49 50 49 50 51 53 58 62 64 67 72 71 66 63 67 68 66 64 65 63 64 61 59 56 53 49 56 59 56 60 61 59 59 56 55 55 63 62 63 61 63 63 63 65
MSLP
1016.51 1016.07 1015.74 1015.45 1015.19 1014.88 1014.49 1014.11 1013.75 1013.40 1013.01 1012.66 1012.20 1011.80 1011.53 1011.17 1010.43 1010.22 1008.80 1006.39 1006.24 1006.13 1006.36 1005.99 1005.88 1005.74 1006.10 1006.69 1007.16 1007.85 1008.42 1008.49 1007.68 1006.82 1005.77 1005.42 1005.73 1006.07 1006.10 1006.77 1007.13 1007.72 1008.20 1008.66 1010.13
1016.47 1016.06 1015.74 1015.48 1015.15 1014.77 1014.37 1013.92 1013.56 1013.16 1012.71 1012.33 1011.95 1011.68 1011.58 1011.31 1010.64 1008.94 1005.82 1005.75 1005.81 1006.06 1006.26 1005.94 1005.85 1006.08 1006.74 1007.03 1007.43 1008.03 1008.38 1007.62 1006.80 1006.22 1005.90 1005.43 1005.15 1005.51 1006.19 1007.03 1007.22 1007.87 1008.31 1009.15 1010.27
1016.52 1016.08 1015.73 1015.41 1015.04 1014.64 1014.27 1013.80 1013.33 1012.90 1012.43 1012.04 1011.74 1011.60 1011.49 1011.35 1010.18 1006.47 1004.95 1005.58 1005.78 1005.88 1005.97 1005.86 1006.15 1006.38 1007.10 1007.47 1007.83 1007.97 1007.77 1007.13 1005.93 1005.51 1005.24 1005.39 1005.21 1005.13 1005.90 1007.01 1006.90 1007.45 1008.49 1009.56 1010.49
1016.56 1016.07 1015.68 1015.29 1014.85 1014.44 1014.10 1013.69 1013.21 1012.63 1012.21 1011.98 1011.65 1011.42 1011.21 1011.02 1008.68 1005.45 1004.97 1005.50 1005.84 1005.99 1006.00 1006.00 1006.34 1006.84 1007.30 1007.43 1007.58 1007.56 1006.87 1006.67 1005.47 1005.04 1005.25 1005.05 1004.78 1005.18 1005.39 1005.73 1006.00 1007.15 1007.72 1009.11 1010.19
1016.45 1015.97 1015.49 1015.06 1014.63 1014.21 1013.90 1013.46 1012.97 1012.51 1012.15 1011.84 1011.48 1011.23 1010.89 1009.78 1006.79 1005.08 1005.25 1005.89 1006.02 1006.08 1006.07 1006.23 1006.48 1006.90 1007.27 1007.53 1007.60 1007.60 1006.69 1006.20 1005.43 1005.13 1004.96 1004.46 1004.43 1004.81 1005.38 1005.61 1006.20 1007.23 1008.11 1008.74 1009.58
1016.32 1015.81 1015.30 1014.86 1014.41 1013.91 1013.60 1013.18 1012.61 1012.12 1011.99 1011.75 1011.44 1011.28 1010.70 1008.23 1004.90 1004.93 1005.45 1006.16 1005.81 1005.94 1006.01 1006.23 1006.59 1006.59 1007.02 1007.32 1007.34 1006.58 1006.05 1005.44 1004.95 1004.61 1004.61 1004.46 1004.59 1004.82 1005.54 1005.80 1006.63 1007.27 1008.02 1008.72 1009.02
1016.25 1015.72 1015.15 1014.60 1014.11 1013.61 1013.28 1012.75 1012.28 1011.76 1011.54 1011.39 1011.28 1011.10 1009.91 1006.50 1004.87 1005.07 1005.53 1005.81 1005.53 1005.52 1005.75 1005.84 1006.31 1006.78 1006.91 1006.66 1006.37 1006.17 1005.94 1004.92 1003.58 1003.56 1003.89 1004.16 1005.16 1004.89 1005.24 1005.83 1006.58 1007.12 1007.41 1008.08 1008.62
1016.20 1015.59 1015.01 1014.42 1013.88 1013.25 1012.73 1012.34 1011.80 1011.28 1011.23 1011.09 1011.11 1010.78 1008.39 1005.22 1004.90 1005.33 1005.60 1005.81 1005.61 1005.44 1005.48 1005.57 1006.03 1006.67 1006.82 1006.39 1006.29 1006.18 1006.09 1005.60 1003.15 1003.07 1003.47 1003.90 1004.29 1004.66 1005.28 1005.70 1006.53 1007.08 1007.49 1007.42 1007.86
1015.96 1015.43 1014.81 1014.26 1013.69 1013.00 1012.33 1011.79 1011.13 1010.71 1010.91 1010.87 1010.91 1010.16 1007.27 1005.10 1005.14 1004.75 1005.06 1005.28 1005.43 1005.59 1005.64 1005.70 1006.07 1006.68 1006.79 1007.01 1006.75 1006.44 1006.18 1005.32 1003.81 1002.77 1002.96 1003.84 1004.13 1003.94 1004.92 1005.62 1006.13 1006.55 1006.66 1006.94 1007.19
1015.68 1015.13 1014.55 1014.01 1013.47 1012.78 1011.98 1011.01 1010.77 1010.63 1010.85 1010.71 1010.10 1009.62 1006.39 1004.77 1004.12 1004.36 1004.70 1005.01 1005.15 1005.26 1005.47 1005.94 1006.50 1006.95 1007.37 1007.58 1007.57 1006.75 1006.22 1005.12 1003.94 1002.73 1002.81 1003.48 1003.48 1004.02 1004.60 1005.25 1005.38 1005.70 1006.03 1006.37 1006.23
1015.57 1014.97 1014.31 1013.77 1013.22 1012.68 1011.96 1010.89 1011.00 1010.67 1010.00 1008.80 1008.07 1007.18 1005.57 1004.44 1003.65 1003.85 1004.28 1005.04 1005.41 1005.51 1005.84 1006.08 1007.01 1007.03 1006.82 1006.86 1006.31 1006.16 1005.98 1005.16 1002.78 1002.42 1002.50 1002.82 1003.11 1003.80 1004.14 1005.13 1005.53 1005.56 1005.55 1005.49 1005.35
1015.31 1014.78 1014.06 1013.30 1012.87 1012.48 1012.54 1011.33 1009.99 1009.99 1009.06 1007.29 1006.72 1006.25 1005.29 1004.87 1004.74 1003.65 1003.80 1004.85 1005.16 1005.60 1005.79 1006.61 1006.77 1006.40 1006.01 1005.62 1005.47 1005.58 1005.56 1004.55 1002.76 1001.84 1002.57 1002.84 1003.18 1002.96 1003.79 1003.63 1003.51 1004.12 1004.61 1004.68 1004.76
1015.03 1014.47 1013.77 1012.84 1012.31 1012.27 1011.77 1010.14 1009.06 1009.07 1008.89 1006.55 1005.58 1004.98 1004.58 1004.79 1004.41 1003.57 1003.59 1004.25 1004.77 1005.47 1005.81 1006.19 1005.15 1004.94 1004.95 1004.47 1004.56 1004.48 1004.54 1003.82 1003.28 1002.78 1002.75 1003.25 1003.61 1003.38 1003.28 1002.88 1003.57 1003.46 1003.56 1004.01 1003.84
1014.86 1014.22 1013.63 1012.61 1012.27 1012.08 1010.79 1009.09 1008.81 1008.64 1008.57 1006.18 1004.89 1003.55 1003.74 1003.83 1003.73 1002.83 1002.98 1003.84 1004.62 1004.98 1005.55 1005.55 1004.78 1004.69 1004.68 1004.65 1004.20 1003.96 1003.37 1003.45 1003.50 1003.88 1004.24 1004.24 1004.65 1003.88 1003.12 1003.03 1002.95 1002.43 1002.64 1002.69 1002.96
1014.60 1014.06 1013.68 1013.37 1012.84 1011.78 1009.55 1008.79 1008.30 1008.17 1007.82 1004.81 1003.89 1002.74 1002.77 1003.42 1003.20 1002.64 1002.71 1003.33 1004.27 1004.78 1005.26 1004.87 1004.60 1004.50 1004.44 1004.21 1003.93 1004.03 1003.70 1004.04 1003.88 1004.70 1005.27 1005.52 1005.69 1003.98 1003.48 1002.88 1002.08 1001.65 1001.56 1001.53 1001.78
1014.08 1013.84 1013.50 1013.41 1013.02 1010.10 1009.15 1008.61 1008.29 1008.95 1006.58 1004.14 1003.15 1003.01 1003.37 1003.28 1003.11 1002.95 1002.91 1003.09 1003.85 1004.83 1005.18 1005.01 1004.42 1004.33 1003.68 1003.37 1003.75 1003.58 1004.07 1004.80 1005.54 1006.09 1006.85 1006.06 1006.34 1005.19 1003.94 1002.55 1001.77 1000.64 1000.44 1000.46 1000.84
1013.58 1013.09 1013.29 1012.60 1010.94 1009.81 1009.40 1009.29 1009.68 1008.88 1005.69 1004.33 1003.49 1003.37 1003.36 1003.51 1003.61 1003.38 1003.61 1004.08 1004.72 1005.52 1005.98 1005.20 1004.36 1003.76 1003.34 1003.40 1003.35 1003.98 1005.27 1006.26 1007.27 1007.86 1007.88 1006.73 1006.68 1004.72 1002.79 1002.90 1002.17 1000.78 1000.04 999.63 999.52
1012.76 1011.90 1011.22 1010.91 1009.92 1009.64 1009.80 1010.19 1009.88 1007.43 1005.91 1004.40 1003.68 1003.78 1003.93 1003.88 1003.85 1003.92 1004.25 1004.71 1004.90 1005.52 1006.49 1006.34 1004.87 1003.47 1002.96 1003.08 1003.45 1004.20 1005.36 1006.79 1007.94 1009.12 1008.29 1007.18 1006.20 1004.22 1003.42 1002.69 1001.70 1000.24 999.73 999.20 999.43
1012.03 1011.36 1011.33 1009.22 1009.70 1010.14 1010.50 1010.82 1009.03 1007.50 1005.96 1004.98 1004.12 1004.21 1004.29 1004.08 1004.20 1004.51 1004.61 1004.54 1004.66 1005.12 1005.97 1006.09 1005.24 1003.61 1002.97 1002.72 1003.27 1004.15 1005.08 1005.61 1007.16 1008.59 1009.02 1007.75 1006.14 1004.17 1003.53 1002.62 1002.27 1001.16 1000.63 1000.71 1000.56
1012.94 1011.96 1010.23 1008.77 1009.19 1009.87 1010.64 1010.51 1009.03 1007.34 1006.05 1005.31 1004.92 1004.39 1004.28 1004.12 1004.27 1004.57 1004.27 1003.82 1003.81 1004.05 1004.41 1005.36 1005.38 1003.78 1002.83 1002.74 1003.05 1003.49 1004.46 1005.83 1007.32 1008.61 1009.02 1008.12 1007.16 1006.38 1005.26 1004.71 1003.94 1002.95 1001.77 1001.45 1001.03
1012.92 1011.76 1009.21 1008.81 1009.17 1010.25 1011.26 1010.42 1008.72 1007.08 1006.08 1005.69 1005.18 1004.96 1004.44 1004.18 1004.12 1004.17 1004.03 1003.20 1002.97 1003.34 1003.93 1004.88 1005.44 1003.89 1003.65 1003.38 1003.23 1003.75 1004.48 1005.83 1007.26 1008.05 1008.76 1008.57 1007.65 1006.43 1006.19 1005.89 1005.51 1004.33 1003.33 1003.07 1002.62
1013.81 1012.26 1009.60 1009.55 1010.22 1011.33 1011.05 1009.63 1008.35 1007.13 1006.52 1006.09 1005.43 1004.94 1004.48 1004.07 1004.12 1003.83 1003.51 1002.93 1002.60 1002.94 1003.94 1004.71 1005.53 1005.38 1004.39 1003.43 1003.37 1003.76 1004.19 1005.55 1007.18 1008.24 1008.59 1008.41 1007.44 1006.42 1006.60 1006.50 1006.02 1005.31 1004.43 1004.38 1004.11
1014.87 1013.10 1009.89 1009.61 1010.51 1011.11 1010.34 1009.34 1008.28 1007.32 1006.30 1005.90 1005.36 1004.50 1004.27 1004.04 1004.09 1003.68 1003.18 1002.76 1002.70 1002.91 1003.43 1004.40 1005.51 1005.83 1005.00 1004.27 1003.77 1003.69 1004.07 1004.91 1006.13 1007.35 1008.04 1008.41 1007.53 1006.77 1006.87 1007.06 1006.94 1005.40 1005.18 1004.60 1004.56
1015.07 1013.71 1011.58 1010.68 1010.86 1010.65 1010.36 1009.37 1008.15 1006.74 1006.07 1005.36 1004.75 1004.22 1004.26 1004.07 1003.89 1003.79 1003.59 1003.11 1003.20 1003.35 1003.52 1004.00 1005.72 1005.98 1005.66 1004.75 1004.21 1004.03 1004.12 1004.47 1005.44 1007.08 1007.67 1007.45 1007.25 1007.22 1007.50 1007.53 1007.41 1007.02 1006.56 1006.59 1006.09
1015.13 1014.58 1013.56 1012.22 1011.58 1011.05 1010.47 1009.53 1008.56 1007.69 1005.95 1005.13 1004.42 1004.02 1003.66 1004.11 1004.12 1004.14 1004.08 1004.00 1003.91 1004.05 1004.23 1004.99 1006.21 1006.16 1005.54 1004.82 1004.42 1004.11 1004.05 1004.37 1005.22 1006.02 1006.84 1006.95 1007.11 1007.30 1007.80 1007.99 1008.18 1007.88 1007.15 1006.59 1006.29
1015.74 1015.37 1014.16 1013.19 1012.23 1011.31 1010.59 1009.44 1008.83 1007.53 1006.69 1005.06 1004.55 1003.47 1003.45 1003.63 1003.50 1004.14 1004.20 1004.31 1004.46 1004.82 1005.28 1005.95 1006.61 1006.70 1006.21 1005.27 1004.67 1004.22 1004.23 1004.82 1005.71 1006.56 1006.86 1007.08 1007.53 1007.62 1008.00 1008.50 1008.62 1008.59 1008.16 1007.57 1007.22
1016.39 1015.72 1015.15 1013.99 1013.02 1012.08 1011.11 1010.20 1008.86 1007.91 1005.65 1004.70 1004.02 1003.71 1003.57 1003.53 1003.60 1003.84 1004.22 1004.40 1004.78 1005.23 1006.02 1006.56 1007.02 1007.53 1007.26 1006.31 1005.53 1005.09 1004.82 1005.45 1006.94 1007.57 1007.69 1008.03 1008.41 1008.12 1008.79 1009.23 1009.40 1009.09 1008.70 1008.13 1007.59
Wind_Speed
15 15 15 14 14 13 13 13 13 13 12 12 13 13 12 13 16 2 6 9 5 4 4 5 5 5 1 2 3 2 4 2 2 0 5 3 5 2 3 13 4 7 7 8 19
16 16 15 15 14 14 14 14 13 13 13 13 13 13 11 11 4 6 11 4 8 7 3 2 3 5 3 2 3 4 3 3 3 3 2 5 7 9 5 6 1 6 10 19 20
16 16 16 16 15 15 14 15 15 14 14 14 14 12 10 7 3 6 6 7 8 9 3 2 3 3 4 1 3 1 2 2 7 6 11 6 4 2 12 4 6 12 19 20 20
16 17 17 16 16 16 15 15 15 16 15 14 13 12 11 2 2 2 10 10 7 4 2 2 2 3 3 1 1 4 7 4 9 3 8 4 5 6 6 6 10 15 23 22 21
17 17 17 17 17 17 16 16 16 16 15 14 13 11 3 3 8 5 10 8 5 4 3 2 3 2 1 2 0 1 4 5 10 11 10 7 10 6 5 8 14 17 18 23 21
18 18 18 18 18 18 17 16 17 17 15 13 11 9 2 4 1 10 9 7 5 4 4 4 3 4 2 3 4 5 5 9 8 10 6 2 2 8 4 13 15 19 19 19 22
18 18 18 19 19 19 18 18 18 17 15 12 9 3 1 11 2 7 8 6 4 5 3 4 6 2 3 4 4 4 7 12 12 4 5 9 1 6 11 16 18 17 19 18 19
18 19 19 19 20 20 20 20 19 18 13 10 6 2 8 2 3 5 5 3 3 6 2 5 7 2 2 5 5 5 3 5 8 9 5 7 11 5 14 18 17 17 16 18 18
19 19 19 20 21 21 22 22 20 12 5 6 1 1 10 2 4 7 6 5 6 5 5 3 4 3 2 2 6 3 2 6 7 6 5 7 7 8 16 15 16 17 18 18 17
19 19 19 19 21 22 24 21 3 5 2 4 4 3 4 3 4 6 6 5 2 1 4 4 2 2 3 5 5 3 5 5 7 3 10 6 11 8 17 17 19 18 18 18 19
19 19 19 19 21 19 12 3 4 2 1 8 5 4 5 6 4 5 6 6 1 1 3 2 4 6 9 9 12 5 3 9 16 8 5 11 10 11 18 14 13 16 18 19 21
20 20 20 20 19 17 1 2 2 3 9 10 9 8 5 4 5 5 8 6 6 6 1 5 5 10 10 8 10 7 6 9 10 6 4 2 9 6 18 23 24 20 19 21 18
21 20 21 22 22 2 2 5 1 6 3 9 7 6 6 9 8 8 11 6 4 4 3 5 10 10 8 10 12 5 5 5 3 6 6 5 8 2 12 18 15 18 15 17 20
22 21 20 28 1 4 5 3 7 4 5 8 5 9 6 6 5 7 8 7 2 8 5 6 4 3 4 6 3 6 3 6 2 4 2 4 7 7 4 8 13 19 18 19 19
22 20 16 9 5 2 4 8 7 5 1 2 4 1 4 10 2 4 4 4 8 6 5 9 4 6 6 6 4 10 2 5 2 3 1 3 3 9 4 7 11 16 21 19 19
24 19 15 2 1 8 9 9 4 7 6 2 5 6 6 2 1 1 4 4 3 3 1 8 2 4 7 5 6 9 2 5 5 3 4 4 5 9 5 7 7 6 14 20 19
26 21 8 2 5 4 6 5 6 4 5 1 5 4 3 6 3 2 4 2 6 3 6 8 11 4 4 6 3 6 7 5 6 6 6 3 3 11 9 8 11 18 8 18 19
30 24 7 6 4 4 4 7 3 4 6 4 2 3 6 3 4 3 4 6 4 4 4 6 10 3 5 7 5 1 7 7 7 5 7 4 5 7 3 10 11 13 7 8 12
27 2 2 5 9 3 7 3 8 6 3 7 3 5 1 4 5 5 6 5 7 10 10 6 9 5 4 3 7 3 4 5 5 2 4 5 9 9 15 17 19 15 11 12 9
4 4 5 4 9 5 6 6 5 4 4 4 3 2 4 2 5 5 7 5 9 13 4 5 5 6 4 3 3 7 5 2 3 3 6 5 4 6 14 14 17 14 8 7 7
2 4 3 4 2 7 4 8 5 6 3 5 2 2 5 5 4 6 4 5 2 2 10 7 7 16 2 3 8 2 3 3 5 5 5 2 6 5 9 9 7 8 9 11 11
4 2 3 2 6 1 3 6 3 3 2 4 3 8 6 7 6 5 5 4 5 2 6 7 6 7 14 6 3 4 5 5 6 6 2 4 6 4 5 7 4 8 10 9 9
2 3 4 4 2 2 5 4 3 4 5 4 4 5 1 6 4 3 1 3 5 4 0 6 0 3 9 8 5 3 2 5 5 3 3 5 6 1 6 7 9 10 8 8 6
2 3 5 4 0 4 3 7 5 4 7 6 8 6 4 5 2 6 3 1 5 5 7 7 3 7 8 8 4 3 2 2 6 4 3 6 5 3 4 5 7 7 7 9 6
2 1 2 3 2 2 2 4 6 5 5 2 4 7 9 7 5 4 1 2 4 8 4 5 2 2 5 6 3 4 6 2 5 5 5 3 7 4 3 3 6 7 8 7 7
2 3 5 2 4 3 4 1 5 3 5 7 6 8 6 6 9 8 6 2 3 5 3 3 3 1 3 0 4 4 4 6 6 3 5 5 3 0 5 5 7 7 7 7 8
3 3 3 3 4 2 3 3 6 8 8 10 6 5 5 6 6 6 4 4 7 7 2 1 5 3 4 4 4 4 2 8 7 5 1 4 1 5 7 6 4 8 8 9 9
Wind_Direction
347 348 346 346 343 342 340 338 334 329 321 316 314 315 319 319 308 181 244 216 148 238 150 269 224 247 106 69 74 76 59 59 211 303 284 174 133 183 106 141 191 177 142 162 148
347 345 342 342 341 341 339 335 331 324 318 317 315 318 321 324 291 255 245 213 222 174 222 268 310 33 65 20 43 76 102 221 209 275 303 294 158 161 122 167 315 85 94 130 145
343 341 340 339 338 337 337 332 325 320 317 316 315 318 315 312 283 245 171 166 167 184 281 354 54 36 91 319 8 330 212 317 277 285 280 223 175 143 128 211 199 162 144 151 158
343 340 337 336 335 334 333 327 321 315 314 314 313 316 313 234 217 312 142 155 167 210 255 111 56 59 55 45 3 12 247 216 282 309 350 213 161 127 159 218 161 164 157 157 168
341 338 336 336 334 330 328 323 314 309 309 311 312 318 323 309 251 149 130 128 155 171 204 106 25 109 160 171 187 162 268 248 257 278 281 223 188 177 215 124 133 150 152 169 174
344 340 337 333 330 325 323 317 310 305 304 304 304 314 318 295 150 146 135 131 197 184 194 175 180 239 125 216 202 220 262 276 247 248 262 173 190 124 166 141 150 164 165 174 177
342 339 336 331 328 322 319 312 306 301 301 295 292 279 292 239 330 153 144 176 189 196 211 201 145 200 150 324 218 261 316 323 272 224 207 127 287 223 158 156 167 181 180 181 189
340 338 335 331 328 322 315 309 304 297 290 273 259 251 252 241 124 152 162 196 234 247 270 340 134 153 212 302 306 299 89 350 289 137 194 146 254 229 166 161 179 184 196 194 202
338 335 333 333 328 321 314 309 301 286 216 155 147 172 269 48 185 197 162 211 177 212 228 220 91 205 351 40 347 346 252 217 283 210 130 159 243 201 174 181 185 192 197 202 204
335 332 328 329 328 322 319 305 270 107 174 202 260 343 279 241 219 172 191 226 264 295 306 125 149 260 68 74 258 286 319 313 255 267 205 169 250 175 183 190 198 199 200 206 207
333 330 326 323 324 326 341 12 26 12 237 206 198 244 292 303 311 198 165 143 221 330 225 71 81 243 258 207 236 269 256 278 281 251 159 215 246 193 194 203 210 211 211 208 215
332 330 326 322 320 319 236 42 67 144 303 238 238 257 272 66 308 294 119 156 148 221 349 25 247 231 241 256 228 200 241 266 288 37 137 162 255 222 186 210 209 204 211 216 219
330 330 328 323 319 103 281 231 359 314 187 289 210 217 189 149 207 256 146 171 169 202 202 180 242 321 321 323 329 200 184 261 228 341 2 19 311 295 219 224 219 223 219 222 216
329 330 332 326 16 321 266 265 302 210 46 272 230 261 148 147 273 218 176 141 223 222 201 233 313 106 328 303 320 325 236 237 194 60 281 42 288 294 312 248 212 221 217 221 220
327 328 331 335 288 258 293 317 307 61 348 166 210 15 164 153 231 246 170 80 193 216 114 249 303 336 316 250 20 259 315 283 126 112 99 340 51 268 342 286 252 218 226 221 217
323 326 328 152 275 249 317 317 52 46 255 308 159 165 127 166 253 63 135 66 158 205 293 251 269 193 228 261 193 260 212 45 45 83 15 223 119 291 276 236 296 266 211 219 214
322 316 295 265 230 321 310 41 48 156 305 309 211 151 164 170 202 165 135 148 175 112 292 309 279 241 196 302 14 76 54 339 348 9 224 103 111 235 284 321 267 283 216 213 209
322 312 215 212 274 348 58 56 191 244 262 347 323 84 159 151 256 209 172 226 247 133 110 199 318 204 163 173 216 348 153 157 216 210 250 353 263 260 322 305 311 289 269 239 217
320 316 203 256 196 10 77 100 211 208 296 330 355 97 242 188 168 142 221 236 212 165 181 160 265 282 217 175 127 303 249 206 135 58 76 244 296 317 349 338 355 338 32 8 344
320 340 266 121 151 83 81 228 239 238 337 2 77 33 146 200 154 158 188 234 231 185 156 220 304 224 278 111 252 155 178 307 1 171 254 279 285 247 326 326 335 348 51 55 78
6 10 279 147 114 52 165 230 266 256 350 13 353 297 232 190 201 181 196 272 148 202 169 153 156 259 34 179 237 328 276 71 129 123 182 225 265 226 276 296 327 18 27 23 2
345 18 335 34 61 44 172 201 256 281 26 292 211 215 218 196 200 181 191 174 324 181 139 201 155 237 242 254 274 204 151 130 113 277 168 156 278 313 319 302 152 54 49 27 23
25 271 323 59 131 286 284 283 242 264 245 224 255 214 275 193 150 177 276 122 332 24 321 185 4 42 347 356 3 129 149 124 105 78 197 126 259 334 353 338 321 119 137 131 98
64 24 330 55 104 122 12 291 274 268 256 198 239 206 168 197 305 174 176 9 360 42 46 79 119 151 182 215 178 269 305 179 129 116 191 219 168 167 346 343 355 5 9 349 4
28 322 187 271 307 13 124 306 291 295 261 262 294 224 186 197 159 181 211 336 38 340 48 90 115 197 254 252 191 238 243 207 164 172 149 226 158 159 152 46 346 330 346 357 350
43 31 349 290 318 352 74 261 277 290 234 264 217 265 194 183 185 187 142 169 192 0 83 355 198 120 301 262 232 214 172 114 65 62 120 161 83 87 119 66 22 357 338 329 325
328 328 107 304 357 49 225 308 282 322 263 236 262 119 103 183 175 174 181 174 164 151 187 98 125 75 271 351 349 334 349 109 97 21 139 124 320 358 69 78 29 343 329 318 318